Temperature
14 14 14 14 14 14 14 15 15 15 15 15 15 16 16 16 17 17 17 17 17 17 17 17 17 17 17 17 17 17 17 17 17 18 17 17 17 17 17 17 17 17 17
14 14 14 14 14 14 14 14 15 15 15 15 15 15 16 16 16 16 17 17 17 17 17 17 17 17 17 17 17 17 17 17 17 17 17 17 17 18 17 17 17 17 17
13 14 14 14 14 14 14 14 14 14 15 15 15 15 15 16 16 16 16 17 17 17 17 17 17 17 17 17 17 17 17 17 17 17 17 17 17 17 17 17 17 17 17
13 13 13 13 14 14 14 14 14 14 14 14 15 15 15 15 16 16 16 16 17 17 17 17 17 17 17 17 17 17 17 17 17 17 17 17 17 17 17 17 17 17 17
13 13 13 13 13 13 13 13 14 14 14 14 14 15 15 15 16 16 16 16 16 17 17 17 17 17 17 17 17 17 17 17 17 17 17 17 17 17 17 17 17 17 17
13 13 13 13 13 13 13 13 13 14 14 14 14 14 15 15 15 16 16 16 16 16 16 17 17 17 17 17 17 17 17 17 17 17 17 17 17 17 17 17 17 17 17
13 13 13 13 13 13 13 13 13 13 14 14 14 14 15 15 15 15 16 16 16 16 16 16 16 16 17 17 17 17 17 17 17 17 17 17 17 17 17 17 17 17 17
13 12 12 12 12 12 13 13 13 13 13 13 14 14 14 14 15 15 15 16 16 16 16 16 16 16 16 17 17 17 17 17 17 17 17 17 17 17 17 17 17 17 17
13 12 12 12 12 12 12 12 13 13 13 13 13 14 14 14 15 15 15 15 16 16 16 16 16 16 16 16 17 17 17 17 17 17 17 17 17 17 17 17 17 17 17
12 12 12 12 12 12 12 12 13 13 13 13 13 13 14 14 14 14 15 15 15 16 16 16 16 16 16 16 16 16 17 17 17 17 17 17 17 17 17 17 17 17 17
12 12 12 12 12 12 12 12 12 13 13 13 13 13 13 14 14 14 14 15 15 15 15 16 16 16 16 16 16 16 16 16 16 17 17 16 16 17 17 17 17 17 17
13 13 12 12 12 12 12 12 12 12 13 13 13 13 13 14 14 14 14 14 15 15 15 15 15 16 16 16 16 16 16 16 16 16 16 16 16 16 16 16 17 17 17
13 13 13 12 12 12 12 12 12 12 12 13 13 13 13 13 14 14 14 14 14 14 14 15 15 15 16 16 16 16 16 16 16 16 16 16 16 16 16 16 16 16 16
13 13 13 12 12 12 12 12 12 12 12 12 13 13 13 13 13 13 14 14 14 14 14 14 15 15 15 15 16 16 16 16 16 16 16 16 16 16 16 16 16 16 16
13 13 13 13 13 13 13 13 12 12 12 12 13 13 13 13 13 13 13 14 14 14 13 14 14 14 15 15 15 15 15 15 16 16 16 16 16 16 16 16 16 16 16
13 13 13 13 13 13 13 13 13 12 12 12 12 13 13 13 13 13 13 13 14 14 14 14 14 14 14 15 15 15 15 15 15 15 15 15 15 16 16 16 16 16 16
13 13 13 13 13 13 13 13 13 13 13 12 12 13 13 13 13 13 13 13 13 13 14 14 14 14 14 14 14 14 15 15 15 15 15 15 15 15 15 15 15 15 15
13 13 13 13 13 13 13 13 13 13 13 13 13 13 13 13 13 13 13 13 13 13 13 13 13 13 13 14 14 14 14 14 15 15 15 15 15 15 15 15 15 15 15
13 13 13 13 13 13 13 13 13 13 13 13 13 13 13 13 13 13 13 13 13 13 13 13 13 13 13 13 13 14 14 14 14 14 14 14 14 14 15 15 15 15 15
13 13 13 13 13 13 13 13 13 13 13 13 13 13 13 13 13 13 13 13 13 13 13 13 13 13 13 13 13 13 13 13 13 14 14 14 14 14 14 14 14 14 14
13 13 13 13 13 13 13 13 13 13 13 13 13 13 13 13 13 13 13 13 13 13 13 13 13 13 13 13 13 13 13 13 13 13 13 13 13 13 13 13 14 14 14
13 13 13 13 13 13 13 13 13 13 13 13 13 13 13 13 13 13 13 13 13 13 13 13 13 13 13 12 12 12 12 13 13 13 13 13 13 13 13 13 13 13 13
14 13 13 13 13 13 13 13 13 13 13 13 13 13 13 13 13 13 13 13 13 13 13 13 13 13 12 12 12 12 12 12 12 12 12 12 12 12 12 12 13 13 13
14 14 13 13 13 13 13 13 13 13 13 13 13 13 13 13 12 12 13 13 13 13 13 13 13 13 12 12 12 12 12 12 12 12 12 12 12 12 12 12 12 12 12
14 14 14 13 13 13 13 13 13 13 13 12 12 12 12 12 12 12 12 13 13 12 12 12 12 12 12 12 12 12 12 12 12 12 11 11 11 11 11 11 11 11 11
14 14 14 14 13 13 13 13 13 13 13 12 12 12 12 12 12 12 12 12 12 12 12 12 12 12 12 12 12 12 12 12 11 11 11 11 11 11 11 11 11 11 11
Wind_Speed
1 1 2 2 2 2 2 2 2 2 2 2 3 3 3 3 4 5 5 6 6 7 8 8 8 9 9 9 9 10 10 10 10 11 11 10 10 10 11 11 11 10 10
1 1 1 2 2 2 2 2 2 2 2 2 3 3 3 3 3 5 5 5 5 6 7 7 8 9 10 10 10 10 10 10 10 10 11 11 10 10 10 10 10 10 10
0 0 1 2 2 3 2 2 2 1 2 1 2 3 3 3 3 4 5 4 4 5 6 7 7 8 9 10 10 10 10 10 10 10 11 11 11 11 11 10 10 10 10
1 1 1 2 3 2 1 1 1 1 1 1 2 2 2 2 3 3 3 3 3 3 3 5 6 7 8 9 10 10 11 11 11 11 11 12 12 12 11 11 10 10 10
2 1 1 2 2 1 1 2 0 1 1 2 2 2 2 2 2 1 1 2 2 2 2 3 5 6 7 8 9 10 11 12 12 12 12 12 12 12 12 11 11 10 10
3 1 1 2 2 1 1 1 1 1 1 2 2 1 2 2 1 1 2 1 1 1 2 2 3 5 6 8 9 10 11 12 12 12 12 12 13 12 12 12 11 11 11
3 2 2 2 2 1 2 1 0 1 1 0 1 2 2 2 1 1 1 0 0 1 1 2 3 3 4 6 8 9 11 12 13 13 12 12 13 13 13 12 12 12 11
3 2 2 2 2 1 2 1 0 0 1 0 1 1 1 3 2 1 1 0 1 1 1 1 2 3 4 4 5 8 10 10 11 12 13 13 13 14 14 13 13 12 12
4 3 2 2 2 1 1 2 1 1 1 1 1 2 2 2 1 2 2 1 1 1 1 1 1 3 4 3 4 6 8 9 9 10 12 12 13 14 15 15 14 14 13
3 3 2 2 2 1 2 2 1 1 2 1 0 0 1 2 2 0 2 2 1 1 1 1 0 1 2 3 3 5 7 8 8 9 10 12 13 13 14 15 15 15 15
3 3 3 2 2 2 2 2 1 1 2 2 1 1 1 1 1 2 0 2 2 2 1 1 0 0 1 2 3 4 5 6 7 7 8 9 11 12 13 14 15 15 15
3 4 3 2 2 2 2 2 1 2 2 2 1 1 2 2 1 2 2 0 1 2 1 1 1 1 1 1 2 3 5 5 6 7 7 8 9 10 11 12 14 14 14
3 4 3 3 2 2 2 1 1 1 2 2 2 2 2 2 2 2 2 1 0 1 1 1 1 1 2 2 1 1 3 4 5 5 6 7 7 8 9 11 12 13 13
4 4 3 3 3 2 1 0 1 1 1 2 2 2 1 1 1 2 3 3 1 1 1 1 1 1 2 2 2 2 0 3 4 4 5 5 6 7 8 8 9 10 11
3 3 3 3 3 2 1 0 1 1 0 1 1 2 1 1 1 1 2 3 3 2 1 1 1 1 2 2 2 2 1 0 2 2 3 4 5 5 5 6 7 7 8
3 2 2 2 2 2 1 0 1 1 1 1 1 2 1 1 1 1 2 2 2 3 2 1 1 1 1 1 2 2 1 1 1 0 1 3 3 4 4 5 5 5 6
3 2 2 2 2 1 1 0 1 1 1 1 1 2 1 1 1 1 2 2 2 2 2 1 1 1 1 1 2 2 2 2 1 1 1 2 3 4 4 5 5 5 6
3 2 2 2 2 1 1 1 1 1 1 1 1 1 1 1 1 1 2 2 2 2 3 2 0 0 1 1 1 1 2 3 2 2 1 1 2 3 3 4 5 5 6
3 2 1 2 2 2 1 1 1 1 2 2 2 2 2 2 2 2 2 2 2 2 2 2 1 0 1 1 1 1 2 2 3 3 3 1 1 1 1 2 3 4 5
3 3 2 3 2 2 2 1 1 1 1 1 1 2 2 3 3 3 2 3 2 3 3 3 1 1 1 1 1 1 2 2 2 3 4 3 2 2 2 1 2 4 5
4 3 3 2 2 2 2 2 2 2 1 1 0 0 1 3 4 3 3 3 3 3 3 2 2 1 1 1 0 0 1 1 2 2 2 2 2 2 3 3 2 2 3
4 3 3 3 3 3 3 4 4 2 2 1 1 1 1 1 1 2 4 4 5 4 4 3 2 2 1 2 1 1 1 1 1 2 2 2 2 2 2 3 3 2 2
5 4 4 4 4 5 5 5 5 4 3 2 2 1 0 0 1 1 2 2 2 4 5 5 4 4 3 4 3 2 2 1 1 1 1 1 2 2 2 4 5 4 3
6 6 5 5 5 5 7 6 6 4 3 2 2 2 2 1 1 3 3 2 2 1 2 3 3 3 3 3 4 3 3 1 0 1 1 0 2 2 3 5 8 7 7
7 6 5 6 6 6 7 7 6 4 3 3 2 2 2 2 3 4 4 3 2 1 2 4 4 3 3 4 4 4 3 2 1 1 2 1 1 1 2 2 6 9 9
8 7 7 7 7 7 8 9 8 4 4 3 2 2 3 3 3 4 4 4 3 1 2 3 4 4 4 4 4 3 3 3 1 0 1 1 1 1 1 1 2 5 7
Wind_Direction
14 352 344 343 337 338 330 318 316 308 291 283 270 255 252 249 254 262 267 272 264 259 247 231 219 209 200 198 198 190 180 174 168 162 159 155 149 144 145 144 143 142 145
103 358 341 333 330 324 313 297 295 293 281 261 267 259 253 247 248 257 260 268 271 262 249 237 226 212 203 201 200 194 188 184 179 173 170 166 161 157 158 157 156 156 158
80 43 331 319 312 316 318 314 315 314 288 274 266 266 256 247 243 251 253 253 263 264 244 237 234 218 209 205 203 199 193 189 189 184 180 176 173 170 170 169 168 168 167
355 16 331 316 320 327 329 309 312 317 304 287 273 277 268 249 247 247 243 243 247 257 249 239 231 221 213 213 210 203 198 193 194 193 189 183 180 177 175 175 177 178 175
336 340 299 301 321 325 318 306 322 249 270 284 269 270 282 264 261 255 231 233 243 244 240 243 231 217 216 219 217 210 202 199 197 196 194 187 184 182 181 181 183 183 181
328 326 294 306 319 325 323 313 295 305 251 266 285 314 300 284 267 256 231 203 217 246 235 212 211 214 219 223 220 215 209 204 200 199 198 194 191 190 190 188 187 190 189
329 320 309 314 321 304 284 279 256 315 316 292 48 358 339 328 336 294 255 174 228 252 223 199 195 199 212 221 216 214 213 209 205 204 203 201 197 195 195 195 193 195 196
324 313 301 294 293 290 307 308 266 155 321 65 124 101 358 351 350 354 350 74 285 258 239 226 198 201 203 206 216 215 213 211 209 206 206 205 203 200 200 201 200 202 203
318 310 295 283 282 263 270 275 240 173 213 291 117 143 151 206 309 348 2 359 344 321 284 258 198 207 199 197 211 216 211 208 209 209 208 209 209 207 207 207 208 209 208
316 315 306 290 281 265 260 263 227 197 170 208 282 73 160 168 150 24 348 351 1 340 317 304 201 194 190 186 199 203 205 206 210 213 214 213 214 214 214 213 213 214 214
315 313 313 307 294 274 262 257 233 197 186 179 179 169 108 70 102 146 137 345 356 339 348 350 31 84 172 177 185 197 199 206 212 216 220 220 217 217 218 218 218 220 220
311 315 318 315 299 281 270 257 230 200 198 184 180 168 159 154 171 151 166 203 332 325 344 16 30 32 62 134 181 182 183 196 209 219 224 226 224 223 224 224 224 224 226
299 305 316 308 301 288 280 251 212 206 197 190 191 196 192 190 168 155 151 161 143 331 349 13 5 19 51 71 63 137 182 194 207 218 225 228 229 229 233 232 228 227 230
268 282 294 298 302 303 298 243 228 237 195 196 203 189 187 203 173 166 162 149 127 26 16 331 334 355 18 48 40 58 76 212 207 210 219 225 229 233 238 240 236 231 231
267 276 291 303 310 315 313 182 208 245 187 188 190 184 181 201 184 184 167 160 154 156 214 277 312 321 1 38 39 52 36 174 184 196 217 229 228 229 230 232 233 234 236
269 284 299 309 318 326 323 170 175 210 165 194 186 166 169 185 180 169 168 168 163 159 176 235 253 292 331 26 45 46 35 50 59 322 245 239 233 229 226 227 229 230 234
263 267 276 294 303 313 315 234 219 192 161 183 176 168 186 177 166 168 162 153 154 151 158 230 259 295 14 29 11 24 42 49 26 324 276 247 235 231 226 224 226 230 232
257 256 264 280 284 288 287 235 236 196 181 190 193 168 189 167 164 171 164 160 162 164 160 173 248 7 20 3 1 19 28 46 28 354 317 273 246 233 226 228 230 232 231
250 259 253 258 264 273 266 244 209 198 200 207 201 187 195 167 176 173 161 159 164 154 148 149 166 58 36 40 39 28 32 22 22 20 19 11 316 251 233 241 244 240 235
228 240 245 252 254 256 250 235 190 179 180 200 197 190 195 194 195 185 174 174 158 137 131 133 133 94 77 43 68 53 27 14 3 10 21 26 32 31 17 337 279 252 240
225 226 231 255 258 243 230 207 193 174 162 153 108 218 213 206 200 189 181 177 159 149 142 140 141 126 131 131 139 59 40 353 357 13 11 10 16 20 10 357 339 298 259
226 220 222 232 244 241 227 201 178 173 172 177 218 273 285 278 200 186 183 178 175 171 168 163 167 168 187 186 165 150 143 62 351 353 17 351 13 6 351 355 354 351 335
215 219 225 221 233 245 234 211 188 168 176 193 210 231 269 24 141 126 122 123 158 181 181 167 168 188 188 192 171 165 169 161 211 305 33 351 1 7 352 7 12 18 19
209 216 222 220 225 241 231 215 195 172 178 198 208 208 209 247 190 153 127 100 79 65 170 166 175 191 196 184 176 169 162 143 41 359 51 32 347 353 352 8 27 43 44
212 213 214 212 217 238 233 216 192 166 184 207 215 211 203 215 216 163 139 136 110 53 78 108 121 120 122 137 147 133 133 126 78 9 27 72 350 347 356 9 28 39 42
214 211 214 212 213 226 230 217 195 173 186 202 210 227 223 207 205 173 156 154 162 185 113 97 82 70 70 74 94 127 149 146 143 301 5 44 19 20 4 360 21 25 34
Height
1510 1510 1509 1509 1508 1508 1508 1508 1507 1507 1507 1508 1508 1509 1510 1511 1513 1514 1516 1517 1519 1520 1521 1522 1523 1524 1526 1527 1529 1530 1531 1533 1535 1536 1538 1539 1541 1543 1545 1546 1548 1550 1552
1509 1508 1507 1507 1506 1506 1506 1505 1505 1505 1505 1506 1506 1507 1508 1509 1510 1512 1513 1515 1516 1518 1519 1521 1522 1523 1525 1526 1528 1530 1531 1533 1535 1536 1538 1540 1542 1543 1545 1547 1549 1551 1553
1507 1506 1506 1505 1504 1504 1504 1503 1503 1503 1503 1504 1504 1504 1505 1506 1508 1509 1511 1512 1514 1516 1517 1519 1520 1522 1523 1525 1527 1529 1530 1532 1534 1536 1538 1540 1542 1544 1546 1548 1549 1551 1553
1505 1505 1504 1503 1502 1502 1501 1501 1501 1501 1501 1501 1502 1502 1503 1504 1506 1507 1508 1510 1512 1514 1515 1517 1518 1520 1522 1523 1525 1527 1529 1531 1533 1535 1537 1539 1541 1543 1545 1547 1549 1551 1553
1504 1503 1502 1501 1500 1500 1499 1499 1499 1499 1499 1499 1500 1500 1501 1502 1503 1505 1506 1508 1510 1511 1513 1515 1517 1518 1520 1522 1524 1526 1528 1530 1532 1534 1536 1538 1540 1543 1545 1546 1548 1550 1552
1503 1502 1501 1500 1499 1498 1497 1497 1497 1497 1497 1497 1497 1498 1498 1500 1501 1502 1504 1506 1507 1509 1511 1513 1515 1517 1518 1520 1522 1524 1526 1528 1530 1533 1535 1537 1539 1541 1543 1545 1547 1549 1551
1502 1500 1499 1498 1497 1497 1496 1495 1495 1495 1495 1495 1496 1496 1497 1498 1499 1500 1501 1503 1505 1507 1509 1511 1513 1515 1516 1518 1520 1522 1525 1527 1529 1531 1533 1536 1538 1540 1542 1544 1546 1548 1550
1501 1500 1498 1497 1496 1495 1494 1494 1493 1493 1493 1494 1494 1495 1496 1497 1497 1498 1499 1501 1503 1505 1507 1509 1511 1513 1515 1517 1519 1521 1523 1525 1527 1529 1531 1534 1536 1538 1541 1543 1545 1546 1548
1500 1499 1497 1496 1495 1494 1493 1492 1492 1492 1492 1492 1493 1494 1495 1494 1495 1496 1497 1499 1501 1503 1505 1507 1508 1510 1513 1515 1517 1519 1521 1523 1525 1527 1529 1531 1534 1536 1538 1540 1542 1544 1546
1499 1498 1496 1495 1494 1493 1492 1491 1491 1490 1491 1491 1491 1492 1494 1494 1494 1495 1496 1497 1499 1501 1503 1504 1506 1508 1510 1513 1515 1517 1519 1520 1523 1525 1527 1529 1531 1533 1536 1538 1540 1542 1544
1498 1497 1495 1494 1493 1492 1491 1490 1489 1489 1489 1490 1490 1491 1492 1493 1493 1494 1495 1496 1497 1499 1501 1502 1504 1506 1508 1510 1512 1515 1516 1518 1520 1522 1524 1526 1529 1531 1533 1535 1537 1539 1541
1497 1496 1495 1493 1492 1491 1490 1489 1488 1488 1488 1488 1489 1490 1490 1491 1492 1493 1494 1495 1496 1498 1499 1501 1502 1504 1506 1508 1510 1512 1514 1516 1518 1520 1522 1524 1526 1528 1530 1531 1533 1535 1537
1496 1495 1494 1492 1491 1490 1489 1488 1488 1487 1487 1487 1488 1488 1489 1490 1491 1492 1493 1494 1495 1496 1497 1499 1500 1502 1504 1506 1508 1510 1512 1514 1516 1517 1519 1521 1523 1524 1526 1528 1530 1532 1534
1496 1494 1493 1492 1491 1490 1489 1488 1487 1487 1486 1486 1487 1487 1488 1489 1490 1491 1492 1493 1494 1495 1496 1497 1498 1500 1502 1503 1505 1507 1509 1511 1513 1515 1516 1518 1520 1521 1523 1524 1526 1528 1530
1495 1494 1493 1491 1490 1489 1488 1487 1487 1486 1486 1486 1486 1486 1487 1487 1488 1489 1491 1492 1493 1493 1494 1495 1497 1498 1500 1501 1503 1504 1506 1508 1510 1512 1513 1515 1516 1518 1519 1521 1522 1524 1526
1494 1493 1492 1491 1490 1489 1488 1487 1487 1486 1486 1485 1485 1485 1486 1487 1487 1488 1489 1490 1491 1493 1493 1494 1495 1496 1498 1499 1500 1502 1504 1505 1507 1508 1510 1511 1513 1514 1516 1517 1519 1520 1522
1493 1492 1491 1490 1489 1489 1488 1487 1486 1486 1485 1485 1485 1485 1485 1486 1487 1487 1488 1489 1490 1491 1492 1493 1494 1495 1496 1497 1498 1500 1501 1502 1503 1505 1506 1508 1509 1510 1512 1513 1515 1516 1517
1492 1491 1490 1490 1489 1488 1488 1487 1486 1485 1485 1485 1485 1485 1485 1485 1486 1487 1487 1488 1488 1489 1490 1491 1492 1493 1494 1495 1496 1498 1498 1499 1500 1502 1503 1504 1505 1507 1508 1509 1510 1511 1513
1490 1490 1489 1489 1488 1488 1487 1486 1486 1485 1485 1484 1484 1484 1484 1485 1485 1486 1486 1487 1487 1488 1489 1490 1491 1491 1493 1494 1495 1496 1496 1497 1498 1499 1500 1501 1502 1503 1504 1505 1506 1507 1508
1488 1488 1488 1487 1487 1487 1486 1486 1485 1485 1484 1484 1484 1484 1484 1484 1484 1485 1485 1486 1486 1487 1488 1489 1489 1490 1491 1492 1493 1494 1494 1495 1496 1497 1498 1498 1499 1500 1501 1501 1502 1503 1504
1486 1486 1486 1486 1485 1485 1485 1485 1485 1484 1484 1483 1483 1483 1483 1483 1483 1483 1484 1484 1485 1486 1486 1487 1488 1489 1490 1491 1492 1492 1493 1494 1494 1495 1495 1496 1496 1497 1497 1498 1498 1499 1500
1483 1483 1483 1483 1483 1483 1483 1483 1483 1483 1483 1483 1482 1482 1482 1482 1482 1482 1483 1483 1484 1485 1485 1486 1487 1488 1489 1490 1491 1491 1492 1492 1493 1494 1494 1494 1494 1494 1495 1495 1495 1496 1496
1480 1480 1481 1481 1481 1481 1481 1482 1482 1482 1482 1482 1481 1481 1481 1481 1481 1481 1482 1482 1483 1483 1484 1485 1486 1487 1488 1489 1489 1490 1490 1491 1491 1491 1492 1492 1492 1492 1492 1492 1493 1493 1493
1476 1477 1477 1478 1478 1478 1479 1479 1480 1480 1480 1480 1480 1480 1480 1480 1480 1480 1481 1481 1482 1482 1483 1484 1485 1486 1487 1487 1488 1488 1489 1489 1490 1490 1490 1491 1491 1491 1491 1491 1490 1490 1490
1472 1472 1473 1474 1474 1475 1476 1476 1477 1477 1477 1478 1478 1478 1478 1478 1479 1479 1480 1480 1480 1481 1482 1483 1484 1484 1485 1486 1486 1487 1487 1488 1488 1489 1489 1489 1489 1489 1489 1489 1489 1489 1488
1466 1468 1468 1470 1470 1471 1472 1473 1473 1474 1474 1474 1475 1475 1476 1477 1477 1477 1478 1478 1479 1479 1480 1481 1482 1483 1483 1484 1484 1485 1486 1486 1486 1487 1487 1487 1487 1488 1488 1488 1487 1487 1486